Flag Weather past 2 weeks in Lappeenranta, Finland

Now
32 °F

Light rain. Fog.


Feels Like: 29 °F
Forecast: 30 / 32 °F
Wind: 3 mph from Southeast

Location: Lappeenranta

Current Time: Nov 28, 2014 at 1:25:57 PM

Latest Report: Nov 28, 2014 at 12:50 PM


Visibility: 0 mi

Pressure: 30.51 "Hg

Humidity: 100%

Dew point: 32 °F

Location of LappeenrantaLocation

Historic Weather in Lappeenranta — Graph

°F

Lappeenranta temperature yesterday

Maximum temperature yesterday: 36 °F (at 12:20 AM)
Minimum temperature yesterday: 32 °F (at 10:20 PM)
Average temperature yesterday: 35 °F

Past Weeks' High & Low Weather Summary

 TemperatureHumidityPressure
High36 °F (Nov 13, 12:20 PM)100% (Nov 15, 9:20 PM)30.63 "Hg (Nov 15, 9:20 PM)
Low21 °F (Nov 20, 5:50 PM)75% (Nov 14, 7:20 AM)30.18 "Hg (Nov 22, 5:20 AM)
Average30 °F96%30.42 "Hg
* Reported Nov 13 11:20 AM — Nov 28 11:50 AM, Lappeenranta, Weather by CustomWeather, © 2014

Note: Actual official high and low records may vary slightly from our data, if they occured in-between our weather recording intervals... More about our weather records

Advertising

Lappeenranta weather history for previous 24 hours

 ConditionsComfort  
Time TempWeatherWind HumidityBarometerVisibility
11:50 AM
Nov 28
32 °FFog.3 mph100%30.51 "Hg0 mi
11:20 AM32 °FFog.6 mph100%30.48 "Hg0 mi
10:50 AM32 °FFog.5 mph100%30.48 "Hg0 mi
10:20 AM32 °FFog.3 mph100%30.48 "Hg0 mi
9:50 AM32 °FFog.3 mph100%30.48 "Hg0 mi
9:20 AM32 °FFog.5 mph100%30.48 "Hg0 mi
8:50 AM32 °FFog.5 mph100%30.45 "Hg0 mi
8:20 AM32 °FFog.3 mph100%30.45 "Hg0 mi
7:50 AM32 °FFog.3 mph100%30.45 "Hg0 mi
7:20 AM32 °FFog.5 mph100%30.45 "Hg0 mi
6:50 AM32 °FFog.2 mph100%30.45 "Hg0 mi
6:20 AM32 °FFog.5 mph100%30.42 "Hg0 mi
5:50 AM32 °FFog.5 mph100%30.42 "Hg0 mi
5:20 AM32 °FFog.3 mph100%30.42 "Hg0 mi
4:50 AM32 °FFog.3 mph100%30.42 "Hg0 mi
4:20 AM32 °FFog.3 mph100%30.42 "Hg0 mi
3:50 AM32 °FFog.3 mph100%30.42 "Hg0 mi
3:20 AM32 °FFog.5 mph100%30.42 "Hg0 mi
2:50 AM32 °FFog.3 mph100%30.42 "Hg0 mi
2:20 AM32 °FFog.3 mph100%30.42 "Hg0 mi
1:50 AM32 °FFog.5 mph100%30.39 "Hg0 mi
12:50 AM32 °FFog.2 mph100%30.39 "Hg0 mi
12:20 AM32 °FFog.3 mph100%30.39 "Hg0 mi
11:50 PM
Nov 27
32 °FFog.3 mph100%30.39 "Hg0 mi
11:20 PM32 °FFog.3 mph100%30.39 "Hg0 mi
10:50 PM32 °FFog.3 mph100%30.39 "Hg0 mi
10:20 PM32 °FFog.3 mph100%30.36 "Hg0 mi
9:50 PM34 °FFog.3 mph100%30.36 "Hg0 mi
9:20 PM34 °FFog.3 mph100%30.36 "Hg0 mi
8:50 PM34 °FFog.3 mph100%30.36 "Hg0 mi
8:20 PM34 °FFog.3 mph100%30.36 "Hg0 mi
7:50 PM34 °FFog.3 mph100%30.36 "Hg0 mi
7:20 PM34 °FFog.3 mph100%30.36 "Hg1 mi
6:50 PM34 °FFog.3 mph100%30.33 "Hg1 mi
6:20 PM34 °FFog.3 mph100%30.33 "Hg1 mi
5:50 PM34 °FFog.5 mph100%30.33 "Hg1 mi
5:20 PM34 °FFog.6 mph100%30.33 "Hg1 mi
4:50 PM34 °FFog.3 mph100%30.33 "Hg0 mi
4:20 PM34 °FFog.3 mph100%30.33 "Hg0 mi
3:50 PM34 °FFog.3 mph100%30.33 "Hg0 mi
3:20 PM34 °FLight rain. Fog.3 mph100%30.33 "Hg0 mi
2:50 PM34 °FFog.5 mph100%30.30 "Hg0 mi
2:20 PM34 °FFog.3 mph100%30.30 "Hg0 mi
1:50 PM36 °FRain. Fog.2 mph100%30.30 "Hg1 mi
1:20 PM36 °FFog.3 mph100%30.30 "Hg1 mi
Weather by CustomWeather, © 2014

See weather overviewHow to use our weather pages